| time (UTC) | temp F | wind direction | speed knots | gust knots | rain 1hr in | rain 24hr in | rain mn in | humidity % | barometer mb |
| 20260510105237 | 63 | 0 | 0.0 | 0.0 | 0.00 | 0.00 | 0.00 | 90 | 1010.2 |
| 20260510104731 | 63 | 0 | 0.0 | 0.0 | 0.00 | 0.00 | 0.00 | 90 | 1009.9 |
| 20260510104225 | 63 | 0 | 0.0 | 0.0 | 0.00 | 0.00 | 0.00 | 90 | 1010.0 |
| 20260510103719 | 64 | 0 | 0.0 | 0.0 | 0.00 | 0.00 | 0.00 | 91 | 1010.0 |
| 20260510103213 | 64 | 0 | 0.0 | 0.0 | 0.00 | 0.00 | 0.00 | 91 | 1010.0 |
| 20260510102707 | 64 | 0 | 0.0 | 0.0 | 0.00 | 0.00 | 0.00 | 90 | 1009.9 |
| 20260510102201 | 64 | 0 | 0.0 | 0.0 | 0.00 | 0.00 | 0.00 | 90 | 1010.0 |
| 20260510101149 | 64 | 0 | 0.0 | 0.0 | 0.00 | 0.00 | 0.00 | 90 | 1009.9 |
| 20260510100643 | 64 | 0 | 0.0 | 0.0 | 0.00 | 0.00 | 0.00 | 90 | 1010.0 |
| 20260510100137 | 64 | 0 | 0.0 | 0.0 | 0.00 | 0.00 | 0.00 | 91 | 1010.0 |
| 20260510095631 | 64 | 0 | 0.0 | 0.0 | 0.00 | 0.00 | 0.00 | 91 | 1010.1 |
| 20260510095125 | 64 | 0 | 0.0 | 0.0 | 0.00 | 0.00 | 0.00 | 91 | 1010.1 |
| 20260510094619 | 64 | 0 | 0.0 | 0.0 | 0.00 | 0.00 | 0.00 | 91 | 1010.1 |
| 20260510094114 | 65 | 0 | 0.0 | 0.0 | 0.00 | 0.00 | 0.00 | 91 | 1010.2 |
| 20260510093829 | 65 | 0 | 0.0 | 0.0 | 0.00 | 0.00 | 0.00 | 90 | 1010.2 |
| 20260510093101 | 65 | 0 | 0.0 | 0.0 | 0.00 | 0.00 | 0.00 | 91 | 1010.1 |
| 20260510092819 | 65 | 0 | 0.0 | 0.0 | 0.00 | 0.00 | 0.00 | 90 | 1010.2 |
| 20260510092312 | 65 | 0 | 0.0 | 0.0 | 0.00 | 0.00 | 0.00 | 90 | 1010.1 |
| 20260510091544 | 66 | 0 | 0.0 | 0.0 | 0.00 | 0.00 | 0.00 | 90 | 1010.0 |
| 20260510091037 | 66 | 0 | 0.0 | 0.0 | 0.00 | 0.00 | 0.00 | 91 | 1010.0 |
| 20260510090531 | 66 | 0 | 0.0 | 0.0 | 0.00 | 0.00 | 0.00 | 90 | 1010.0 |
| 20260510090025 | 66 | 0 | 0.0 | 0.0 | 0.00 | 0.00 | 0.00 | 90 | 1010.0 |
| 20260510085740 | 67 | 0 | 0.0 | 0.0 | 0.00 | 0.00 | 0.00 | 90 | 1010.0 |
| 20260510085013 | 67 | 0 | 0.0 | 0.0 | 0.00 | 0.00 | 0.00 | 90 | 1009.9 |
| 20260510084728 | 67 | 0 | 0.0 | 0.0 | 0.00 | 0.00 | 0.00 | 90 | 1009.9 |
| 20260510084001 | 67 | 0 | 0.0 | 0.0 | 0.00 | 0.00 | 0.00 | 90 | 1009.8 |
| 20260510083455 | 67 | 0 | 0.0 | 0.9 | 0.00 | 0.00 | 0.00 | 90 | 1009.7 |
| 20260510082949 | 67 | 0 | 0.0 | 0.9 | 0.00 | 0.00 | 0.00 | 90 | 1009.8 |
| 20260510082443 | 67 | 0 | 0.0 | 1.7 | 0.00 | 0.00 | 0.00 | 90 | 1009.7 |
| 20260510081937 | 67 | 0 | 0.0 | 1.7 | 0.00 | 0.00 | 0.00 | 91 | 1009.6 |
| 20260510081654 | 67 | 0 | 0.0 | 0.0 | 0.00 | 0.00 | 0.00 | 91 | 1009.7 |
| 20260510080927 | 67 | 0 | 0.0 | 0.0 | 0.00 | 0.00 | 0.00 | 91 | 1009.7 |
| 20260510080638 | 66 | 0 | 0.0 | 0.0 | 0.00 | 0.00 | 0.00 | 91 | 1009.8 |
| 20260510075917 | 66 | 0 | 0.0 | 0.0 | 0.00 | 0.00 | 0.00 | 91 | 1009.6 |
| 20260510075407 | 65 | 0 | 0.0 | 0.0 | 0.00 | 0.00 | 0.00 | 90 | 1009.6 |
| 20260510074902 | 66 | 0 | 0.0 | 0.0 | 0.00 | 0.00 | 0.00 | 90 | 1009.7 |
| 20260510074356 | 66 | 0 | 0.0 | 0.0 | 0.00 | 0.00 | 0.00 | 90 | 1009.8 |
| 20260510073849 | 66 | 0 | 0.0 | 0.0 | 0.00 | 0.00 | 0.00 | 90 | 1009.9 |
| 20260510073343 | 67 | 0 | 0.0 | 0.0 | 0.00 | 0.00 | 0.00 | 90 | 1009.9 |
| 20260510072837 | 67 | 0 | 0.0 | 0.0 | 0.00 | 0.00 | 0.00 | 90 | 1009.9 |
| 20260510072331 | 67 | 0 | 0.0 | 0.0 | 0.00 | 0.00 | 0.00 | 90 | 1009.8 |
| 20260510071825 | 67 | 0 | 0.0 | 0.9 | 0.00 | 0.00 | 0.00 | 90 | 1009.8 |
| 20260510071319 | 67 | 0 | 0.0 | 0.9 | 0.00 | 0.00 | 0.00 | 90 | 1009.8 |
| 20260510070813 | 67 | 0 | 0.0 | 0.9 | 0.00 | 0.00 | 0.00 | 90 | 1009.7 |
| 20260510070307 | 66 | 0 | 0.0 | 0.9 | 0.00 | 0.00 | 0.00 | 90 | 1009.8 |
| 20260510065802 | 67 | 0 | 0.0 | 0.9 | 0.00 | 0.00 | 0.00 | 89 | 1009.8 |
| 20260510065256 | 68 | 0 | 0.0 | 0.0 | 0.00 | 0.00 | 0.00 | 90 | 1009.9 |
| 20260510064749 | 68 | 0 | 0.0 | 1.7 | 0.00 | 0.00 | 0.00 | 90 | 1009.9 |
| 20260510064510 | 67 | 0 | 0.0 | 1.7 | 0.00 | 0.00 | 0.00 | 90 | 1009.9 |
| 20260510063245 | 67 | 0 | 0.0 | 1.7 | 0.00 | 0.00 | 0.00 | 90 | 1009.9 |
| 20260510062745 | 68 | 0 | 0.0 | 0.9 | 0.00 | 0.00 | 0.00 | 89 | 1009.9 |
| 20260510062243 | 68 | 0 | 0.0 | 0.9 | 0.00 | 0.00 | 0.00 | 90 | 1009.9 |
| 20260510061741 | 68 | 0 | 0.0 | 0.9 | 0.00 | 0.00 | 0.00 | 90 | 1009.9 |
| 20260510061240 | 67 | 0 | 0.0 | 0.9 | 0.00 | 0.00 | 0.00 | 90 | 1009.9 |
| 20260510061008 | 67 | 0 | 0.0 | 0.0 | 0.00 | 0.00 | 0.00 | 89 | 1009.9 |
| 20260510060239 | 67 | 0 | 0.0 | 0.0 | 0.00 | 0.00 | 0.00 | 89 | 1009.9 |
| 20260510055737 | 67 | 0 | 0.0 | 0.0 | 0.00 | 0.00 | 0.00 | 89 | 1009.9 |
| 20260510055236 | 67 | 0 | 0.0 | 0.0 | 0.00 | 0.00 | 0.00 | 89 | 1009.9 |
| 20260510054740 | 68 | 0 | 0.0 | 0.0 | 0.00 | 0.00 | 0.00 | 88 | 1009.9 |
| 20260510054234 | 68 | 0 | 0.0 | 0.0 | 0.00 | 0.00 | 0.00 | 88 | 1009.9 |
| 20260510053953 | 68 | 0 | 0.0 | 0.0 | 0.00 | 0.00 | 0.00 | 89 | 1009.9 |
| 20260510053231 | 68 | 0 | 0.0 | 0.0 | 0.00 | 0.00 | 0.00 | 88 | 1009.8 |
| 20260510052728 | 68 | 0 | 0.0 | 1.7 | 0.00 | 0.00 | 0.00 | 88 | 1009.7 |
| 20260510052449 | 69 | 0 | 0.0 | 1.7 | 0.00 | 0.00 | 0.00 | 88 | 1009.7 |
| 20260510051724 | 68 | 0 | 0.0 | 1.7 | 0.00 | 0.00 | 0.00 | 88 | 1009.8 |
| 20260510051443 | 68 | 0 | 0.0 | 1.7 | 0.00 | 0.00 | 0.00 | 88 | 1009.7 |
| 20260510050937 | 68 | 0 | 0.0 | 0.9 | 0.00 | 0.00 | 0.00 | 87 | 1009.7 |
| 20260510050445 | 69 | 0 | 0.0 | 0.0 | 0.00 | 0.00 | 0.00 | 87 | 1009.6 |
| 20260510045715 | 69 | 0 | 0.0 | 0.0 | 0.00 | 0.00 | 0.00 | 87 | 1009.6 |
| 20260510045209 | 69 | 0 | 0.0 | 0.0 | 0.00 | 0.00 | 0.00 | 87 | 1009.5 |
| 20260510044703 | 69 | 0 | 0.0 | 0.0 | 0.00 | 0.00 | 0.00 | 87 | 1009.5 |
| 20260510044157 | 69 | 0 | 0.0 | 0.0 | 0.00 | 0.00 | 0.00 | 87 | 1009.4 |
| 20260510043651 | 70 | 0 | 0.0 | 0.9 | 0.00 | 0.00 | 0.00 | 86 | 1009.6 |
| 20260510043145 | 70 | 0 | 0.0 | 0.9 | 0.00 | 0.00 | 0.00 | 87 | 1009.5 |
| 20260510042638 | 70 | 0 | 0.0 | 0.9 | 0.00 | 0.00 | 0.00 | 86 | 1009.5 |
| 20260510042400 | 70 | 0 | 0.0 | 0.0 | 0.00 | 0.00 | 0.00 | 86 | 1009.5 |
| 20260510041627 | 71 | 0 | 0.0 | 0.0 | 0.00 | 0.00 | 0.00 | 85 | 1009.4 |
| 20260510041121 | 71 | 0 | 0.0 | 0.0 | 0.00 | 0.00 | 0.00 | 86 | 1009.4 |
| 20260510040615 | 71 | 0 | 0.0 | 0.0 | 0.00 | 0.00 | 0.00 | 86 | 1009.3 |
| 20260510040109 | 71 | 0 | 0.0 | 0.0 | 0.00 | 0.00 | 0.00 | 85 | 1009.1 |
| 20260510035603 | 71 | 0 | 0.0 | 0.0 | 0.00 | 0.00 | 0.00 | 84 | 1009.3 |
| 20260510035321 | 71 | 0 | 0.0 | 0.0 | 0.00 | 0.00 | 0.00 | 84 | 1009.3 |
| 20260510034551 | 72 | 0 | 0.0 | 0.0 | 0.00 | 0.00 | 0.00 | 84 | 1009.1 |
| 20260510034045 | 72 | 0 | 0.0 | 0.0 | 0.00 | 0.00 | 0.00 | 84 | 1009.1 |
| 20260510033538 | 72 | 0 | 0.0 | 0.0 | 0.00 | 0.00 | 0.00 | 83 | 1009.1 |
| 20260510033035 | 73 | 0 | 0.0 | 0.0 | 0.00 | 0.00 | 0.00 | 82 | 1009.0 |
| 20260510032535 | 73 | 0 | 0.0 | 0.0 | 0.00 | 0.00 | 0.00 | 82 | 1009.0 |
| 20260510032035 | 73 | 0 | 0.0 | 0.0 | 0.00 | 0.00 | 0.00 | 82 | 1009.0 |
| 20260510031538 | 74 | 271 | 0.0 | 0.0 | 0.00 | 0.00 | 0.00 | 81 | 1008.9 |
| 20260510031256 | 74 | 271 | 0.0 | 0.0 | 0.00 | 0.00 | 0.00 | 80 | 1009.0 |
| 20260510030530 | 75 | 271 | 0.0 | 0.0 | 0.00 | 0.00 | 0.00 | 80 | 1009.0 |
| 20260510030028 | 75 | 271 | 0.0 | 1.7 | 0.00 | 0.00 | 0.00 | 79 | 1009.0 |
| 20260510025026 | 76 | 271 | 0.0 | 1.7 | 0.00 | 0.00 | 0.00 | 78 | 1008.8 |
| 20260510024526 | 76 | 271 | 0.0 | 1.7 | 0.00 | 0.00 | 0.00 | 78 | 1008.6 |
| 20260510024027 | 76 | 271 | 0.0 | 1.7 | 0.00 | 0.00 | 0.00 | 77 | 1008.5 |
| 20260510023527 | 76 | 271 | 0.0 | 1.7 | 0.00 | 0.00 | 0.00 | 77 | 1008.4 |
| 20260510023027 | 76 | 271 | 0.9 | 2.6 | 0.00 | 0.00 | 0.00 | 76 | 1008.3 |
| 20260510022522 | 77 | 271 | 0.9 | 2.6 | 0.00 | 0.00 | 0.00 | 76 | 1008.3 |
| 20260510022023 | 77 | 271 | 0.9 | 2.6 | 0.00 | 0.00 | 0.00 | 75 | 1008.3 |
| 20260510021523 | 77 | 271 | 0.9 | 2.6 | 0.00 | 0.00 | 0.00 | 74 | 1008.2 |
| 20260510021023 | 78 | 271 | 0.9 | 3.5 | 0.00 | 0.00 | 0.00 | 74 | 1008.3 |
| 20260510020523 | 78 | 271 | 0.9 | 3.5 | 0.00 | 0.00 | 0.00 | 73 | 1008.2 |
| 20260510020022 | 78 | 271 | 0.9 | 3.5 | 0.00 | 0.00 | 0.00 | 72 | 1008.2 |
| 20260510015522 | 79 | 272 | 0.9 | 3.5 | 0.00 | 0.00 | 0.00 | 71 | 1008.0 |
| 20260510015023 | 79 | 272 | 0.9 | 3.5 | 0.00 | 0.00 | 0.00 | 71 | 1007.9 |
| 20260510014748 | 79 | 272 | 0.9 | 3.5 | 0.00 | 0.00 | 0.00 | 71 | 1007.8 |
| 20260510014019 | 79 | 271 | 0.9 | 3.5 | 0.00 | 0.00 | 0.00 | 71 | 1007.6 |
| 20260510013741 | 79 | 272 | 0.9 | 3.5 | 0.00 | 0.00 | 0.00 | 71 | 1007.6 |
| 20260510013019 | 80 | 272 | 0.9 | 3.5 | 0.00 | 0.00 | 0.00 | 71 | 1007.5 |
| 20260510012518 | 80 | 272 | 0.9 | 2.6 | 0.00 | 0.00 | 0.00 | 72 | 1007.4 |
| 20260510012019 | 80 | 272 | 0.9 | 3.5 | 0.00 | 0.00 | 0.00 | 72 | 1007.4 |
| 20260510011518 | 80 | 272 | 0.9 | 3.5 | 0.00 | 0.00 | 0.00 | 72 | 1007.4 |
| 20260510011019 | 80 | 271 | 0.9 | 3.5 | 0.00 | 0.00 | 0.00 | 72 | 1007.3 |
| 20260510010519 | 80 | 272 | 0.0 | 3.5 | 0.00 | 0.00 | 0.00 | 71 | 1007.3 |
| 20260510010019 | 81 | 273 | 0.0 | 2.6 | 0.00 | 0.00 | 0.00 | 70 | 1007.2 |
| 20260510005516 | 81 | 273 | 0.0 | 2.6 | 0.00 | 0.00 | 0.00 | 69 | 1007.0 |
| 20260510005240 | 81 | 273 | 0.0 | 2.6 | 0.00 | 0.00 | 0.00 | 69 | 1007.0 |
| 20260510004517 | 81 | 273 | 0.0 | 0.9 | 0.00 | 0.00 | 0.00 | 71 | 1007.0 |
| 20260510004243 | 81 | 273 | 0.0 | 0.9 | 0.00 | 0.00 | 0.00 | 71 | 1006.8 |
| 20260510003515 | 81 | 273 | 0.0 | 0.9 | 0.00 | 0.00 | 0.00 | 70 | 1006.9 |
| 20260510003012 | 82 | 273 | 0.0 | 0.9 | 0.00 | 0.00 | 0.00 | 70 | 1006.8 |
| 20260510002510 | 82 | 273 | 0.0 | 0.9 | 0.00 | 0.00 | 0.00 | 69 | 1006.8 |
| 20260510002011 | 83 | 273 | 0.0 | 0.9 | 0.00 | 0.00 | 0.00 | 66 | 1006.7 |
| 20260510001510 | 83 | 273 | 0.0 | 2.6 | 0.00 | 0.00 | 0.00 | 65 | 1006.7 |
| 20260510001005 | 84 | 273 | 0.0 | 2.6 | 0.00 | 0.00 | 0.00 | 65 | 1006.7 |
| 20260510000503 | 84 | 273 | 0.9 | 2.6 | 0.00 | 0.00 | 0.00 | 63 | 1006.6 |
| 20260509235459 | 84 | 273 | 0.9 | 2.6 | 0.00 | 0.00 | 0.00 | 62 | 1006.8 |
| 20260509235219 | 84 | 273 | 0.9 | 2.6 | 0.00 | 0.00 | 0.00 | 61 | 1006.6 |
| 20260509234458 | 84 | 271 | 0.9 | 9.6 | 0.00 | 0.00 | 0.00 | 61 | 1006.6 |
| 20260509233957 | 84 | 270 | 0.9 | 9.6 | 0.00 | 0.00 | 0.00 | 60 | 1006.6 |
| 20260509233454 | 84 | 271 | 2.6 | 9.6 | 0.00 | 0.00 | 0.00 | 59 | 1006.5 |
| 20260509232955 | 85 | 269 | 2.6 | 9.6 | 0.00 | 0.00 | 0.00 | 57 | 1006.6 |
| 20260509232712 | 85 | 233 | 2.6 | 7.8 | 0.00 | 0.00 | 0.00 | 57 | 1006.9 |
| 20260509231450 | 88 | 36 | 0.9 | 2.6 | 0.00 | 0.00 | 0.00 | 58 | 1006.6 |
| 20260509230948 | 88 | 37 | 0.9 | 1.7 | 0.00 | 0.00 | 0.00 | 58 | 1006.5 |
| 20260509230441 | 88 | 37 | 0.9 | 1.7 | 0.00 | 0.00 | 0.00 | 58 | 1006.5 |
| 20260509225934 | 88 | 37 | 0.0 | 1.7 | 0.00 | 0.00 | 0.00 | 57 | 1006.3 |
| 20260509225429 | 88 | 37 | 0.0 | 1.7 | 0.00 | 0.00 | 0.00 | 57 | 1006.3 |
| 20260509224923 | 88 | 37 | 0.9 | 2.6 | 0.00 | 0.00 | 0.00 | 56 | 1006.5 |
| 20260509224416 | 88 | 38 | 0.9 | 3.5 | 0.00 | 0.00 | 0.00 | 54 | 1006.3 |
| 20260509223910 | 89 | 38 | 0.9 | 3.5 | 0.00 | 0.00 | 0.00 | 53 | 1006.3 |
| 20260509223404 | 89 | 38 | 0.9 | 2.6 | 0.00 | 0.00 | 0.00 | 54 | 1006.3 |
| 20260509222858 | 89 | 38 | 0.9 | 2.6 | 0.00 | 0.00 | 0.00 | 53 | 1006.3 |
| 20260509222620 | 89 | 38 | 0.9 | 2.6 | 0.00 | 0.00 | 0.00 | 53 | 1006.3 |
| 20260509221846 | 89 | 38 | 0.9 | 2.6 | 0.00 | 0.00 | 0.00 | 53 | 1006.3 |
| 20260509221340 | 89 | 38 | 1.7 | 3.5 | 0.00 | 0.00 | 0.00 | 52 | 1006.3 |
| 20260509220836 | 90 | 38 | 0.9 | 3.5 | 0.00 | 0.00 | 0.00 | 49 | 1006.3 |
| 20260509220328 | 91 | 38 | 0.9 | 2.6 | 0.00 | 0.00 | 0.00 | 50 | 1006.5 |
| 20260509215822 | 90 | 38 | 0.9 | 2.6 | 0.00 | 0.00 | 0.00 | 50 | 1006.6 |
| 20260509215316 | 90 | 38 | 1.7 | 4.3 | 0.00 | 0.00 | 0.00 | 50 | 1006.6 |
| 20260509214810 | 90 | 38 | 1.7 | 7.0 | 0.00 | 0.00 | 0.00 | 50 | 1006.6 |
| 20260509214306 | 92 | 37 | 0.9 | 7.0 | 0.00 | 0.00 | 0.00 | 49 | 1006.5 |
| 20260509213758 | 92 | 131 | 0.9 | 4.3 | 0.00 | 0.00 | 0.00 | 50 | 1006.7 |
| 20260509213253 | 91 | 132 | 0.9 | 4.3 | 0.00 | 0.00 | 0.00 | 50 | 1006.7 |
| 20260509212746 | 91 | 121 | 0.9 | 3.5 | 0.00 | 0.00 | 0.00 | 49 | 1006.7 |
| 20260509212240 | 91 | 355 | 0.9 | 3.5 | 0.00 | 0.00 | 0.00 | 50 | 1006.8 |
| 20260509211735 | 91 | 347 | 1.7 | 7.8 | 0.00 | 0.00 | 0.00 | 52 | 1006.7 |
| 20260509211455 | 91 | 347 | 1.7 | 7.8 | 0.00 | 0.00 | 0.00 | 51 | 1006.8 |
| 20260509210722 | 90 | 350 | 3.5 | 11.3 | 0.00 | 0.00 | 0.00 | 53 | 1007.0 |
| 20260509210216 | 89 | 24 | 3.5 | 11.3 | 0.00 | 0.00 | 0.00 | 53 | 1007.0 |
| 20260509205710 | 91 | 19 | 2.6 | 10.4 | 0.00 | 0.00 | 0.00 | 52 | 1007.1 |
| 20260509205430 | 91 | 32 | 2.6 | 7.8 | 0.00 | 0.00 | 0.00 | 51 | 1007.2 |
| 20260509204658 | 91 | 59 | 1.7 | 7.8 | 0.00 | 0.00 | 0.00 | 54 | 1007.1 |
| 20260509204152 | 90 | 33 | 2.6 | 7.8 | 0.00 | 0.00 | 0.00 | 54 | 1007.2 |
| 20260509203904 | 89 | 33 | 3.5 | 7.8 | 0.00 | 0.00 | 0.00 | 54 | 1007.3 |
| 20260509203141 | 91 | 28 | 2.6 | 8.7 | 0.00 | 0.00 | 0.00 | 54 | 1007.4 |
| 20260509202635 | 90 | 30 | 3.5 | 8.7 | 0.00 | 0.00 | 0.00 | 52 | 1007.4 |
| 20260509202128 | 90 | 27 | 2.6 | 7.8 | 0.00 | 0.00 | 0.00 | 55 | 1007.4 |
| 20260509201622 | 90 | 28 | 2.6 | 7.8 | 0.00 | 0.00 | 0.00 | 57 | 1007.6 |
| 20260509201116 | 89 | 34 | 2.6 | 7.8 | 0.00 | 0.00 | 0.00 | 56 | 1007.7 |
| 20260509200610 | 89 | 51 | 2.6 | 7.8 | 0.00 | 0.00 | 0.00 | 56 | 1007.8 |
| 20260509200104 | 90 | 46 | 2.6 | 7.8 | 0.00 | 0.00 | 0.00 | 56 | 1007.9 |
| 20260509195558 | 89 | 31 | 3.5 | 10.4 | 0.00 | 0.00 | 0.00 | 54 | 1008.0 |
| 20260509195052 | 89 | 25 | 3.5 | 10.4 | 0.00 | 0.00 | 0.00 | 56 | 1008.1 |
| 20260509194546 | 89 | 36 | 3.5 | 8.7 | 0.00 | 0.00 | 0.00 | 55 | 1008.1 |
| 20260509194040 | 89 | 69 | 3.5 | 8.7 | 0.00 | 0.00 | 0.00 | 55 | 1008.2 |
| 20260509193535 | 89 | 38 | 4.3 | 8.7 | 0.00 | 0.00 | 0.00 | 54 | 1008.4 |
| 20260509193029 | 89 | 30 | 3.5 | 8.7 | 0.00 | 0.00 | 0.00 | 54 | 1008.5 |
| 20260509192522 | 89 | 29 | 2.6 | 7.0 | 0.00 | 0.00 | 0.00 | 54 | 1008.4 |
| 20260509192245 | 89 | 31 | 1.7 | 5.2 | 0.00 | 0.00 | 0.00 | 58 | 1008.4 |
| 20260509191510 | 88 | 290 | 0.9 | 4.3 | 0.00 | 0.00 | 0.00 | 60 | 1008.5 |
| 20260509191006 | 88 | 5 | 1.7 | 9.6 | 0.00 | 0.00 | 0.00 | 59 | 1008.5 |
| 20260509190458 | 87 | 34 | 2.6 | 9.6 | 0.00 | 0.00 | 0.00 | 63 | 1008.7 |
| 20260509190216 | 85 | 34 | 3.5 | 9.6 | 0.00 | 0.00 | 0.00 | 63 | 1008.7 |
| 20260509185446 | 87 | 33 | 4.3 | 9.6 | 0.00 | 0.00 | 0.00 | 60 | 1008.7 |
| 20260509185200 | 88 | 28 | 3.5 | 9.6 | 0.00 | 0.00 | 0.00 | 58 | 1008.7 |
| 20260509184658 | 88 | 29 | 3.5 | 8.7 | 0.00 | 0.00 | 0.00 | 61 | 1008.8 |
| 20260509183928 | 87 | 25 | 2.6 | 8.7 | 0.00 | 0.00 | 0.00 | 62 | 1008.9 |
| 20260509183422 | 86 | 41 | 2.6 | 8.7 | 0.00 | 0.00 | 0.00 | 63 | 1008.9 |
| 20260509182916 | 87 | 42 | 2.6 | 8.7 | 0.00 | 0.00 | 0.00 | 61 | 1009.0 |
| 20260509182410 | 87 | 36 | 2.6 | 5.2 | 0.00 | 0.00 | 0.00 | 61 | 1009.1 |
| 20260509181904 | 85 | 32 | 2.6 | 7.0 | 0.00 | 0.00 | 0.00 | 65 | 1009.3 |
| 20260509181358 | 87 | 33 | 2.6 | 7.0 | 0.00 | 0.00 | 0.00 | 62 | 1009.4 |
| 20260509180853 | 87 | 26 | 1.7 | 7.0 | 0.00 | 0.00 | 0.00 | 63 | 1009.3 |
| 20260509180348 | 86 | 28 | 2.6 | 7.0 | 0.00 | 0.00 | 0.00 | 62 | 1009.4 |
| 20260509175841 | 86 | 28 | 2.6 | 7.0 | 0.00 | 0.00 | 0.00 | 63 | 1009.4 |
| 20260509175340 | 86 | 32 | 1.7 | 7.8 | 0.00 | 0.00 | 0.00 | 63 | 1009.5 |
| 20260509174839 | 85 | 32 | 1.7 | 7.8 | 0.00 | 0.00 | 0.00 | 66 | 1009.5 |
| 20260509174340 | 84 | 33 | 2.6 | 7.8 | 0.00 | 0.00 | 0.00 | 65 | 1009.6 |
| 20260509173840 | 84 | 35 | 2.6 | 7.8 | 0.00 | 0.00 | 0.00 | 67 | 1009.7 |
| 20260509173340 | 85 | 32 | 2.6 | 7.8 | 0.00 | 0.00 | 0.00 | 67 | 1009.7 |
| 20260509173059 | 85 | 31 | 3.5 | 7.8 | 0.00 | 0.00 | 0.00 | 68 | 1009.7 |
| 20260509172338 | 84 | 28 | 2.6 | 7.8 | 0.00 | 0.00 | 0.00 | 67 | 1009.8 |
| 20260509171837 | 84 | 36 | 1.7 | 7.8 | 0.00 | 0.00 | 0.00 | 70 | 1009.8 |
| 20260509171337 | 85 | 320 | 1.7 | 4.3 | 0.00 | 0.00 | 0.00 | 70 | 1009.8 |
| 20260509171103 | 83 | 304 | 1.7 | 5.2 | 0.00 | 0.00 | 0.00 | 71 | 1009.8 |
| 20260509170334 | 83 | 23 | 1.7 | 6.1 | 0.00 | 0.00 | 0.00 | 73 | 1009.8 |
| 20260509165834 | 82 | 22 | 1.7 | 6.1 | 0.00 | 0.00 | 0.00 | 73 | 1009.9 |
| 20260509165331 | 82 | 22 | 1.7 | 6.1 | 0.00 | 0.00 | 0.00 | 74 | 1009.8 |
| 20260509164832 | 82 | 12 | 1.7 | 6.1 | 0.00 | 0.00 | 0.00 | 73 | 1009.8 |
| 20260509164332 | 82 | 288 | 1.7 | 5.2 | 0.00 | 0.00 | 0.00 | 74 | 1009.9 |
| 20260509163829 | 82 | 276 | 0.9 | 5.2 | 0.00 | 0.00 | 0.00 | 74 | 1010.0 |
| 20260509163330 | 82 | 292 | 0.9 | 5.2 | 0.00 | 0.00 | 0.00 | 74 | 1010.0 |
| 20260509162555 | 81 | 40 | 0.9 | 4.3 | 0.00 | 0.00 | 0.00 | 77 | 1010.3 |
| 20260509162056 | 80 | 42 | 1.7 | 4.3 | 0.00 | 0.00 | 0.00 | 79 | 1010.3 |
| 20260509161332 | 79 | 40 | 1.7 | 4.3 | 0.00 | 0.00 | 0.00 | 82 | 1010.2 |
| 20260509160832 | 78 | 40 | 2.6 | 4.3 | 0.00 | 0.00 | 0.00 | 81 | 1010.1 |
| 20260509160332 | 78 | 40 | 1.7 | 7.8 | 0.00 | 0.00 | 0.00 | 83 | 1010.0 |
| 20260509155832 | 78 | 41 | 1.7 | 7.8 | 0.00 | 0.00 | 0.00 | 83 | 1010.0 |
| 20260509155328 | 78 | 37 | 1.7 | 7.8 | 0.00 | 0.00 | 0.00 | 84 | 1010.1 |
| 20260509154829 | 78 | 37 | 1.7 | 7.8 | 0.00 | 0.00 | 0.00 | 83 | 1010.1 |
| 20260509154329 | 78 | 46 | 1.7 | 6.1 | 0.00 | 0.00 | 0.00 | 83 | 1010.0 |
| 20260509153825 | 78 | 47 | 2.6 | 6.1 | 0.00 | 0.00 | 0.00 | 84 | 1010.1 |
| 20260509153325 | 77 | 47 | 2.6 | 6.1 | 0.00 | 0.00 | 0.00 | 85 | 1010.0 |
| 20260509152826 | 77 | 67 | 2.6 | 6.1 | 0.00 | 0.00 | 0.00 | 86 | 1009.7 |
| 20260509152326 | 77 | 184 | 1.7 | 3.5 | 0.00 | 0.00 | 0.00 | 88 | 1010.0 |
| 20260509151825 | 76 | 186 | 0.9 | 3.5 | 0.00 | 0.00 | 0.00 | 88 | 1010.3 |
| 20260509151326 | 76 | 180 | 0.9 | 2.6 | 0.00 | 0.00 | 0.00 | 89 | 1010.3 |
| 20260509150819 | 75 | 180 | 0.9 | 2.6 | 0.00 | 0.00 | 0.00 | 91 | 1010.3 |
| 20260509150319 | 75 | 180 | 0.9 | 2.6 | 0.00 | 0.00 | 0.00 | 91 | 1010.5 |
| 20260509145819 | 74 | 180 | 0.9 | 1.7 | 0.00 | 0.00 | 0.00 | 93 | 1010.6 |
| 20260509145319 | 73 | 180 | 0.0 | 1.7 | 0.00 | 0.00 | 0.00 | 94 | 1010.7 |
| 20260509145036 | 73 | 180 | 0.0 | 1.7 | 0.00 | 0.00 | 0.00 | 94 | 1010.7 |
| 20260509144544 | 73 | 180 | 0.0 | 1.7 | 0.00 | 0.00 | 0.00 | 94 | 1010.7 |
| 20260509143820 | 73 | 180 | 0.9 | 1.7 | 0.00 | 0.00 | 0.00 | 94 | 1010.7 |
| 20260509143320 | 73 | 180 | 0.0 | 1.7 | 0.00 | 0.00 | 0.00 | 94 | 1010.7 |
| 20260509142317 | 73 | 180 | 0.0 | 0.9 | 0.00 | 0.00 | 0.00 | 94 | 1010.4 |
| 20260509141817 | 72 | 180 | 0.0 | 0.0 | 0.00 | 0.00 | 0.00 | 94 | 1010.1 |
| 20260509141317 | 72 | 180 | 0.0 | 1.7 | 0.00 | 0.00 | 0.00 | 94 | 1010.2 |
| 20260509140817 | 72 | 180 | 0.0 | 1.7 | 0.00 | 0.00 | 0.00 | 94 | 1009.9 |
| 20260509140317 | 72 | 180 | 0.0 | 1.7 | 0.00 | 0.00 | 0.00 | 94 | 1009.8 |
| 20260509140037 | 72 | 180 | 0.0 | 1.7 | 0.00 | 0.00 | 0.00 | 94 | 1009.8 |
| 20260509135317 | 72 | 180 | 0.0 | 0.9 | 0.00 | 0.00 | 0.00 | 94 | 1009.9 |
| 20260509134817 | 72 | 180 | 0.0 | 0.9 | 0.00 | 0.00 | 0.00 | 94 | 1009.8 |
| 20260509134311 | 72 | 180 | 0.0 | 0.9 | 0.00 | 0.00 | 0.00 | 95 | 1009.8 |
| 20260509133806 | 72 | 180 | 0.0 | 2.6 | 0.00 | 0.00 | 0.00 | 95 | 1009.8 |
| 20260509133258 | 72 | 180 | 0.0 | 2.6 | 0.00 | 0.00 | 0.00 | 95 | 1009.8 |
| 20260509132753 | 72 | 180 | 0.0 | 3.5 | 0.00 | 0.00 | 0.00 | 95 | 1009.9 |
| 20260509132246 | 72 | 180 | 0.0 | 3.5 | 0.00 | 0.00 | 0.00 | 95 | 1010.0 |
| 20260509132005 | 72 | 0 | 0.9 | 3.5 | 0.00 | 0.00 | 0.00 | 95 | 1009.9 |
| 20260509131235 | 72 | 180 | 1.7 | 4.3 | 0.00 | 0.00 | 0.00 | 95 | 1009.8 |
| 20260509130728 | 72 | 193 | 1.7 | 4.3 | 0.00 | 0.00 | 0.00 | 95 | 1009.9 |
| 20260509130444 | 72 | 193 | 1.7 | 4.3 | 0.00 | 0.00 | 0.00 | 95 | 1009.6 |
| 20260509125717 | 72 | 193 | 1.7 | 4.3 | 0.00 | 0.00 | 0.00 | 95 | 1009.7 |
| 20260509125210 | 71 | 187 | 1.7 | 4.3 | 0.00 | 0.00 | 0.00 | 95 | 1009.7 |
| 20260509124705 | 72 | 187 | 1.7 | 4.3 | 0.00 | 0.00 | 0.00 | 95 | 1009.8 |
| 20260509124158 | 72 | 187 | 0.9 | 4.3 | 0.00 | 0.00 | 0.00 | 95 | 1009.7 |
| 20260509123653 | 72 | 186 | 0.0 | 2.6 | 0.00 | 0.00 | 0.00 | 95 | 1009.8 |
| 20260509123146 | 72 | 186 | 0.9 | 3.5 | 0.00 | 0.00 | 0.00 | 95 | 1009.9 |
| 20260509122641 | 72 | 186 | 0.9 | 3.5 | 0.00 | 0.00 | 0.00 | 95 | 1010.0 |
| 20260509122353 | 72 | 186 | 0.0 | 2.6 | 0.00 | 0.00 | 0.00 | 95 | 1009.8 |
| 20260509121628 | 72 | 186 | 0.9 | 3.5 | 0.00 | 0.00 | 0.00 | 95 | 1009.7 |
| 20260509121123 | 72 | 186 | 1.7 | 3.5 | 0.00 | 0.00 | 0.00 | 94 | 1009.7 |
| 20260509120617 | 72 | 186 | 1.7 | 7.8 | 0.00 | 0.00 | 0.00 | 94 | 1009.6 |
| 20260509120329 | 72 | 185 | 1.7 | 7.8 | 0.00 | 0.00 | 0.00 | 94 | 1009.3 |
| 20260509115605 | 72 | 185 | 2.6 | 7.8 | 0.00 | 0.00 | 0.00 | 94 | 1009.4 |
| 20260509115059 | 72 | 189 | 2.6 | 7.8 | 0.00 | 0.00 | 0.00 | 94 | 1009.6 |
| 20260509114554 | 72 | 213 | 2.6 | 6.1 | 0.00 | 0.00 | 0.00 | 94 | 1009.8 |
| 20260509114047 | 72 | 202 | 2.6 | 6.1 | 0.00 | 0.00 | 0.00 | 94 | 1009.7 |
| 20260509113540 | 72 | 186 | 1.7 | 5.2 | 0.00 | 0.00 | 0.00 | 94 | 1009.9 |
| 20260509113035 | 72 | 190 | 1.7 | 5.2 | 0.00 | 0.00 | 0.00 | 94 | 1009.9 |
| 20260509112528 | 72 | 201 | 1.7 | 5.2 | 0.00 | 0.00 | 0.00 | 94 | 1009.8 |
| 20260509112239 | 72 | 164 | 1.7 | 4.3 | 0.00 | 0.00 | 0.00 | 94 | 1009.7 |
| 20260509111517 | 72 | 161 | 0.9 | 4.3 | 0.00 | 0.00 | 0.00 | 94 | 1009.5 |
| 20260509111010 | 72 | 161 | 0.9 | 3.5 | 0.00 | 0.00 | 0.00 | 94 | 1009.4 |
| 20260509110726 | 72 | 161 | 0.0 | 1.7 | 0.00 | 0.00 | 0.00 | 94 | 1009.3 |
| 20260509105959 | 72 | 161 | 0.9 | 1.7 | 0.00 | 0.00 | 0.00 | 94 | 1009.1 |
| 20260509105453 | 72 | 161 | 0.9 | 3.5 | 0.00 | 0.00 | 0.00 | 94 | 1009.3 |